Home > Weather > Tours > Past weeks

Flag for France Past Weather in Tours, Centre-Val de Loire, France — Yesterday and Last 2 Weeks

Now
73 °F

Overcast.


Feels Like: 77 °F
Forecast: 62 / 77 °F
Wind: 10 mph from West

Location: Tours Airport

Current Time: Jul 28, 2016 at 2:33:07 PM

Latest Report: Jul 28, 2016 at 2:00 PM


Visibility: N/A

Pressure: 30.09 "Hg

Humidity: 57%

Dew Point: 57 °F

Location of ToursLocation

Past Weather in Tours — Graph

°F

Tours Temperature Yesterday

Maximum temperature yesterday: 77 °F (at 4:30 PM)
Minimum temperature yesterday: 55 °F (at 6:00 AM)
Average temperature yesterday: 67 °F

High & Low Weather Summary for the Past Weeks

 TemperatureHumidityPressure
High99 °F (Jul 19, 5:00 PM)94% (Jul 14, 5:00 AM)30.39 "Hg (Jul 14, 5:00 AM)
Low46 °F (Jul 15, 6:00 AM)21% (Jul 19, 5:00 PM)29.89 "Hg (Jul 19, 7:30 PM)
Average71 °F62%30.14 "Hg
* Reported Jul 13 1:00 PM — Jul 28 1:30 PM, Tours, Weather by CustomWeather, © 2016

Note: Actual official high and low records may vary slightly from our data, if they occured in-between our weather recording intervals... More about our weather records

Advertising

Tours Weather History for the Previous 24 Hours

Scroll right to see more
 ConditionsComfort  
Time TempWeatherWind HumidityBarometerVisibility
1:30 PM
Thu, Jul 28
72 °FOvercast.10 mph61%30.09 "HgN/A
1:00 PM72 °FMore clouds than sun.9 mph61%30.09 "HgN/A
12:30 PM73 °FOvercast.9 mph61%30.09 "HgN/A
12:00 PM70 °FMostly cloudy.10 mph69%30.12 "HgN/A
11:30 AM68 °FMostly cloudy.9 mph73%30.09 "HgN/A
11:00 AM70 °FOvercast.9 mph69%30.12 "HgN/A
10:30 AM66 °FOvercast.8 mph78%30.09 "HgN/A
10:00 AM64 °FMostly cloudy.7 mph88%30.09 "HgN/A
9:30 AM64 °FPartly sunny.9 mph88%30.09 "HgN/A
9:00 AM66 °FOvercast.8 mph83%30.09 "HgN/A
8:30 AM64 °FMostly cloudy.9 mph88%30.09 "HgN/A
8:00 AM64 °FPartly sunny.9 mph94%30.09 "HgN/A
7:30 AM64 °FOvercast.8 mph88%30.09 "HgN/A
7:00 AM64 °FOvercast.8 mph88%30.09 "HgN/A
6:30 AM64 °FMostly cloudy.7 mph88%30.09 "Hg4 mi
6:00 AM64 °FMostly cloudy.12 mph88%30.09 "HgN/A
5:30 AM64 °FMostly cloudy.7 mph88%30.07 "HgN/A
5:00 AM64 °FMostly cloudy.8 mph88%30.09 "HgN/A
4:30 AM64 °FOvercast.6 mph88%30.09 "HgN/A
4:00 AM64 °FMostly cloudy.7 mph88%30.09 "HgN/A
3:30 AM64 °FPassing clouds.7 mph88%30.09 "HgN/A
3:00 AM64 °FMostly cloudy.8 mph88%30.09 "HgN/A
2:30 AM64 °FClear.8 mph88%30.09 "Hg10 mi
2:00 AM66 °FClear.9 mph83%30.09 "Hg10 mi
1:30 AM66 °FClear.7 mph83%30.09 "Hg10 mi
1:00 AM66 °FClear.8 mph83%30.09 "Hg10 mi
12:30 AM66 °FClear.7 mph78%30.09 "Hg10 mi
12:00 AM66 °FClear.8 mph78%30.12 "Hg10 mi
11:30 PM
Wed, Jul 27
68 °FClear.6 mph73%30.09 "Hg10 mi
11:00 PM68 °FClear.6 mph73%30.09 "Hg10 mi
10:30 PM70 °FPartly sunny.7 mph69%30.09 "HgN/A
10:00 PM70 °FBroken clouds.6 mph69%30.09 "HgN/A
9:30 PM72 °FPartly sunny.7 mph65%30.09 "HgN/A
9:00 PM72 °FOvercast.8 mph65%30.09 "HgN/A
8:30 PM73 °FPartly sunny.9 mph57%30.09 "HgN/A
8:00 PM73 °FPartly sunny.9 mph57%30.09 "HgN/A
7:30 PM75 °FOvercast.9 mph54%30.09 "HgN/A
7:00 PM75 °FOvercast.9 mph54%30.09 "HgN/A
6:30 PM75 °FPartly sunny.8 mph50%30.09 "HgN/A
6:00 PM75 °FPartly sunny.6 mph50%30.09 "HgN/A
5:30 PM77 °FScattered clouds.10 mph47%30.12 "HgN/A
5:00 PM77 °FPassing clouds.8 mph47%30.12 "HgN/A
4:30 PM77 °FPartly sunny.8 mph47%30.12 "HgN/A
4:00 PM75 °FScattered clouds.9 mph50%30.12 "HgN/A
3:30 PM75 °FBroken clouds.10 mph50%30.12 "HgN/A
3:00 PM75 °FOvercast.8 mph50%30.12 "HgN/A
2:30 PM75 °FPartly sunny.9 mph50%30.12 "HgN/A
2:00 PM73 °FScattered clouds.8 mph50%30.15 "HgN/A
Weather by CustomWeather, © 2016

See weather overviewHow to use our weather pages